Flag for USA

Past Weather in 41°56'55"N, 87°51'32"W, USA — Yesterday and Last 2 Weeks

Now
87 °F

Partly sunny.


Feels Like: 90 °F
Forecast: 85 / 73 °F
Wind: 15 mph from Southwest

Location: Chicago Midway Airport

Current Time: Aug 9, 2020 at 4:23:08 pm

Latest Report: Aug 9, 2020 at 3:53 pm


Visibility: 10 mi

Pressure: 29.94 "Hg

Humidity: 51%

Dew Point: 67 °F

Location of 41°56'55"N, 87°51'32"WLocation

Past Weather in 41°56'55"N, 87°51'32"W — Graph

°F

41°56'55"N, 87°51'32"W Temperature Yesterday

Maximum temperature yesterday: 87 °F (at 4:53 pm)
Minimum temperature yesterday: 68 °F (at 4:53 am)
Average temperature yesterday: 78 °F

High & Low Weather Summary for the Past Weeks

 TemperatureHumidityPressure
High94 °F (Jul 26, 2:53 pm)96% (Aug 2, 5:53 am)30.14 "Hg (Aug 2, 5:53 am)
Low57 °F (Aug 5, 4:53 am)30% (Aug 4, 11:53 am)29.79 "Hg (Aug 2, 2:53 pm)
Average75 °F63%29.97 "Hg
* Reported Jul 25 2:53 pm — Aug 9 2:53 pm, 41°56'55"N, 87°51'32"W. Weather by CustomWeather, © 2020

Note: Actual official high and low records may vary slightly from our data, if they occured in-between our weather recording intervals... More about our weather records

41°56'55"N, 87°51'32"W Weather History for the Previous 24 Hours

Scroll right to see more
 ConditionsComfort  
Time TempWeatherWind HumidityBarometerVisibility
2:53 pm
Sun, Aug 9
89 °FBroken clouds.18 mph50%29.96 "Hg10 mi
1:53 pm89 °FBroken clouds.16 mph50%29.97 "Hg10 mi
12:53 pm89 °FBroken clouds.15 mph50%29.99 "Hg10 mi
11:53 am87 °FScattered clouds.13 mph51%30.01 "Hg10 mi
10:53 am86 °FScattered clouds.9 mph49%30.02 "Hg10 mi
9:53 am83 °FPassing clouds.12 mph53%30.03 "Hg10 mi
8:53 am80 °FPassing clouds.6 mph62%30.05 "Hg10 mi
7:53 am76 °FPassing clouds.7 mph77%30.05 "Hg10 mi
6:53 am73 °FPassing clouds.8 mph84%30.04 "Hg10 mi
5:53 am72 °FPassing clouds.8 mph87%30.04 "Hg10 mi
4:53 am74 °FClear.8 mph82%30.03 "Hg10 mi
3:53 am75 °FClear.10 mph79%30.02 "Hg10 mi
2:53 am75 °FClear.12 mph76%30.02 "Hg10 mi
1:53 am76 °FClear.9 mph77%30.03 "Hg10 mi
12:53 am76 °FPassing clouds.8 mph77%30.05 "Hg10 mi
11:53 pm
Sat, Aug 8
77 °FPassing clouds.13 mph74%30.06 "Hg10 mi
10:53 pm78 °FPassing clouds.10 mph71%30.06 "Hg10 mi
9:53 pm80 °FPassing clouds.9 mph67%30.06 "Hg10 mi
8:53 pm81 °FPassing clouds.8 mph65%30.05 "Hg10 mi
7:53 pm82 °FScattered clouds.13 mph63%30.03 "Hg10 mi
6:53 pm84 °FScattered clouds.14 mph59%30.02 "Hg10 mi
5:53 pm85 °FPartly sunny.14 mph57%30.02 "Hg10 mi
4:53 pm87 °FBroken clouds.13 mph51%30.03 "Hg10 mi
Weather by CustomWeather, © 2020

See weather overview